Home > Weather > Andernach > Past weeks

Flag for Germany Past Weather in Andernach, Rhineland-Palatinate, Germany — Yesterday and Last 2 Weeks

Now
63 °F

Scattered clouds.


Feels Like: 63 °F
Forecast: 59 / 74 °F
Wind: 3 mph from West

Location: Buechel

Current Time: Jul 27, 2016 at 9:48:12 AM

Latest Report: Jul 27, 2016 at 9:20 AM


Visibility: N/A

Pressure: 30.09 "Hg

Humidity: 83%

Dew Point: 57 °F

Location of AndernachLocation

Past Weather in Andernach — Graph

°F

Andernach Temperature Yesterday

Maximum temperature yesterday: 70 °F (at 4:20 PM)
Minimum temperature yesterday: 59 °F (at 11:20 PM)
Average temperature yesterday: 64 °F

High & Low Weather Summary for the Past Weeks

 TemperatureHumidityPressure
High88 °F (Jul 20, 4:20 PM)100% (Jul 13, 5:20 AM)30.33 "Hg (Jul 13, 5:20 AM)
Low45 °F (Jul 15, 5:20 AM)38% (Jul 20, 4:20 PM)29.92 "Hg (Jul 12, 3:20 PM)
Average65 °F76%30.12 "Hg
* Reported Jul 12 8:20 AM — Jul 27 8:20 AM, Andernach, Weather by CustomWeather, © 2016

Note: Actual official high and low records may vary slightly from our data, if they occured in-between our weather recording intervals... More about our weather records

Advertising

Andernach Weather History for the Previous 24 Hours

Scroll right to see more
 ConditionsComfort  
Time TempWeatherWind HumidityBarometerVisibility
8:20 AM
Wed, Jul 27
59 °FScattered clouds.5 mph88%30.09 "Hg5 mi
7:20 AM57 °FFog.3 mph94%30.09 "Hg4 mi
6:20 AM57 °FFog.No wind94%30.09 "Hg3 mi
5:20 AM57 °FFog.1 mph94%30.09 "Hg3 mi
5:02 AM57 °FFog.5 mph94%30.09 "Hg3 mi
4:20 AM55 °FCool.1 mph100%30.09 "Hg3 mi
3:20 AM57 °FCool.5 mph94%30.09 "Hg3 mi
2:20 AM57 °FCool.5 mph94%30.12 "Hg2 mi
1:20 AM57 °FCool.5 mph94%30.12 "Hg1 mi
12:20 AM59 °FCool.3 mph94%30.12 "Hg2 mi
11:20 PM
Tue, Jul 26
59 °FCool.3 mph94%30.15 "Hg3 mi
10:20 PM61 °FCool.5 mph88%30.15 "Hg3 mi
9:20 PM63 °FBroken clouds.5 mph88%30.15 "Hg5 mi
8:20 PM64 °FBroken clouds.6 mph83%30.15 "HgN/A
7:20 PM66 °FPartly sunny.6 mph83%30.15 "HgN/A
6:20 PM66 °FBroken clouds.7 mph83%30.15 "HgN/A
5:20 PM68 °FBroken clouds.8 mph78%30.15 "HgN/A
4:20 PM70 °FScattered clouds.7 mph73%30.15 "HgN/A
3:20 PM66 °FPartly sunny.6 mph88%30.15 "HgN/A
2:20 PM68 °FPartly sunny.3 mph83%30.15 "Hg5 mi
1:56 PM68 °FBroken clouds.3 mph83%30.15 "Hg4 mi
1:20 PM66 °FBroken clouds.2 mph88%30.15 "Hg4 mi
12:20 PM64 °FFog.5 mph94%30.18 "Hg2 mi
11:20 AM64 °FSprinkles. Fog.3 mph94%30.18 "Hg2 mi
10:20 AM63 °FBroken clouds.5 mph100%30.18 "Hg4 mi
10:00 AM63 °FBroken clouds.5 mph94%30.18 "Hg4 mi
9:20 AM63 °FRain showers. Partly sunny.3 mph94%30.18 "Hg2 mi
Weather by CustomWeather, © 2016

See weather overviewHow to use our weather pages